Weather History for McCall, ID

Change the Weather History Date:

Friday, February 10, 2012

  Actual Average Record
Temperature  
Mean Temperature 32 °F 21 °F  
Max Temperature 42 °F 32 °F 54 °F (1963)
Min Temperature 22 °F 10 °F -20 °F (1933)
Degree Days  
Heating Degree Days 33 44  
Month to date heating degree days 445 440  
Since 1 July heating degree days 5232 5914  
Cooling Degree Days 0 0  
Month to date cooling degree days 0 0  
Year to date cooling degree days 0 0  
Moisture  
Dew Point 30 °F    
Average Humidity 85    
Maximum Humidity 100    
Minimum Humidity 70    
Precipitation  
Precipitation T in 0.06 in 1.19 in (1949)
Month to date precipitation 0.20 0.72  
Year to date precipitation 3.51 2.45  
Sea Level Pressure  
Sea Level Pressure 30.14 in    
Wind  
Wind Speed 0 mph (West)    
Max Wind Speed 6 mph    
Max Gust Speed 6 mph    
Visibility 5 miles    
Events      
T = Trace of Precipitation, MM = Missing Value Source: NWS Daily Summary

Daily Weather History Graph

Daily Weather History Graph

Search for Another Location

Airport:

Trip Planner

Search our weather history database for the weather conditions in past years. The results will help you decide how hot, cold, wet, or windy it might be!

Date:

Astronomy

Feb. 10, 2012 Rise Set
Actual Time 7:52 AM MST 6:04 PM MST
Civil Twilight 7:22 AM MST 6:35 PM MST
Nautical Twilight 6:47 AM MST 7:10 PM MST
Astronomical Twilight 6:13 AM MST 7:44 PM MST
Moon 10:01 PM MST (2/10) 8:52 AM MST (2/10)
Length of Visible Light 11h 13m
Length of Day
10h 11m
Waning Gibbous, 89% of the Moon is Illuminated
Feb 10
Waning Gibbous
Feb 14
Last Quarter
Feb 21
New
Feb 29
First Quarter
Mar 8
Full

Hourly Weather History & Observations

Time (MST) Temp. Windchill Dew Point Humidity Pressure Visibility Wind Dir Wind Speed Gust Speed Precip Events Conditions
12:02 AM 32.0 °F - 30.2 °F 93% 30.20 in 3.0 mi Calm Calm - N/A   Overcast
12:51 AM 32.0 °F - 30.9 °F 96% 30.26 in 3.0 mi Calm Calm - N/A   Overcast
1:12 AM 32.0 °F - 30.2 °F 93% 30.18 in 3.0 mi Calm Calm - N/A   Overcast
1:21 AM 33.8 °F - 32.0 °F 93% 30.18 in 5.0 mi Calm Calm - N/A   Overcast
1:42 AM 32.0 °F - 30.2 °F 93% 30.18 in 4.0 mi Calm Calm - N/A   Overcast
1:51 AM 33.1 °F - 30.9 °F 92% 30.23 in 4.0 mi Calm Calm - N/A   Overcast
2:11 AM 32.0 °F - 30.2 °F 93% 30.17 in 1.8 mi Calm Calm - N/A   Overcast
2:17 AM 32.0 °F - 30.2 °F 93% 30.17 in 0.8 mi Calm Calm - N/A   Overcast
2:28 AM 32.0 °F - 30.2 °F 93% 30.17 in 1.2 mi Calm Calm - N/A   Overcast
2:40 AM 32.0 °F - 30.2 °F 93% 30.18 in 2.0 mi Calm Calm - N/A   Overcast
2:47 AM 32.0 °F - 30.2 °F 93% 30.18 in 1.5 mi Calm Calm - N/A   Overcast
2:51 AM 32.0 °F - 32.0 °F 100% 30.23 in 1.5 mi Calm Calm - N/A   Overcast
2:59 AM 32.0 °F - 32.0 °F 100% 30.18 in 2.0 mi Calm Calm - 0.00 in   Overcast
3:24 AM 32.0 °F 28.7 °F 30.2 °F 93% 30.17 in 3.0 mi ENE 3.5 mph - 0.00 in   Overcast
3:51 AM 32.0 °F - 30.9 °F 96% 30.22 in 5.0 mi Calm Calm - 0.00 in   Overcast
4:51 AM 33.1 °F - 32.0 °F 96% 30.21 in 4.0 mi Calm Calm - N/A   Overcast
5:14 AM 32.0 °F - 30.2 °F 93% 30.16 in 2.0 mi Calm Calm - N/A   Overcast
5:28 AM 32.0 °F - 32.0 °F 100% 30.16 in 4.0 mi Calm Calm - N/A   Overcast
5:51 AM 32.0 °F - 30.9 °F 96% 30.22 in 2.5 mi Calm Calm - N/A   Overcast
6:03 AM 32.0 °F - 32.0 °F 100% 30.15 in 3.0 mi Calm Calm - N/A   Overcast
6:51 AM 32.0 °F - 30.9 °F 96% 30.18 in 5.0 mi Calm Calm - N/A   Overcast
7:00 AM 32.0 °F 27.5 °F 30.2 °F 93% 30.12 in 2.5 mi SW 4.6 mph - N/A   Overcast
7:13 AM 32.0 °F 28.7 °F 32.0 °F 100% 30.12 in 4.0 mi WSW 3.5 mph - N/A   Overcast
7:51 AM 33.1 °F - 32.0 °F 96% 30.18 in 3.0 mi Calm Calm - N/A   Overcast
8:33 AM 33.8 °F - 32.0 °F 93% 30.12 in 2.5 mi Calm Calm - N/A   Overcast
8:45 AM 33.8 °F 30.8 °F 30.2 °F 87% 30.12 in 3.0 mi North 3.5 mph - N/A   Overcast
8:51 AM 33.1 °F - 32.0 °F 96% 30.19 in 4.0 mi Calm Calm - N/A   Overcast
9:51 AM 33.1 °F 30.0 °F 32.0 °F 96% 30.18 in 6.0 mi South 3.5 mph - N/A   Overcast
10:51 AM 35.1 °F - 33.1 °F 92% 30.17 in 10.0 mi Calm Calm - N/A   Overcast
11:47 AM 35.6 °F - 33.8 °F 93% 30.11 in 10.0 mi Calm Calm - N/A   Overcast
11:51 AM 36.0 °F - 33.1 °F 89% 30.17 in 10.0 mi Calm Calm - N/A   Overcast
12:04 PM 35.6 °F - 33.8 °F 93% 30.10 in 10.0 mi Calm Calm - N/A   Overcast
12:12 PM 37.4 °F 34.9 °F 33.8 °F 87% 30.11 in 10.0 mi WSW 3.5 mph - N/A   Overcast
12:51 PM 37.9 °F - 33.1 °F 83% 30.14 in 10.0 mi Calm Calm - N/A   Mostly Cloudy
1:51 PM 39.9 °F - 33.1 °F 77% 30.11 in 10.0 mi Calm Calm - N/A   Partly Cloudy
2:51 PM 42.1 °F - 33.1 °F 70% 30.09 in 10.0 mi Calm Calm - N/A   Clear
3:51 PM 39.9 °F 37.8 °F 33.1 °F 77% 30.09 in 10.0 mi South 3.5 mph - N/A   Clear
4:51 PM 41.0 °F - 32.0 °F 70% 30.07 in 10.0 mi Calm Calm - N/A   Clear
5:51 PM 37.0 °F - 32.0 °F 82% 30.08 in 10.0 mi Calm Calm - N/A   Clear
6:51 PM 33.1 °F - 30.0 °F 89% 30.09 in 10.0 mi Calm Calm - N/A   Clear
7:51 PM 30.9 °F - 28.9 °F 92% 30.10 in 10.0 mi Calm Calm - N/A   Clear
8:51 PM 28.9 °F - 27.0 °F 92% 30.10 in 8.0 mi Calm Calm - N/A   Clear
9:51 PM 27.0 °F - 26.1 °F 96% 30.10 in 9.0 mi Calm Calm - N/A   Clear
10:11 PM 26.6 °F 21.2 °F 24.8 °F 93% 30.02 in 2.5 mi NW 4.6 mph - N/A   Partly Cloudy
10:16 PM 26.6 °F 22.6 °F 24.8 °F 93% 30.02 in 1.0 mi NNW 3.5 mph - N/A   Mist
10:38 PM 24.8 °F 20.5 °F 24.8 °F 100% 30.02 in 2.0 mi NE 3.5 mph - N/A   Partly Cloudy
10:45 PM 24.8 °F - 24.8 °F 100% 30.02 in 7.0 mi Calm Calm - N/A   Clear
10:51 PM 26.1 °F - 24.1 °F 92% 30.09 in 10.0 mi Calm Calm - N/A   Clear
11:51 PM 21.9 °F - 21.0 °F 96% 30.09 in 4.0 mi Calm Calm - N/A   Partly Cloudy